Location: ??????
(55.7522°N, 37.6156°E)
Time: 16:56:21
(UTC+00:00)

ADEOS II - Pass Details

Date: 14 June 2025
Orbit: 794 x 796 km, 98.7° (Epoch: 13 July)

Event Time Altitude Azimuth Distance (km) Brightness Sun altitude
Rises 23:04:24 0° 23° (NNE) 3,311 7.9 -8.4°
Reaches altitude 10° 23:07:15 10° 39° (NE) 2,376 6.0 -8.3°
Maximum altitude 23:11:18 22° 89° (E) 1,675 4.1 -8.1°
Drops below altitude 10° 23:15:20 10° 140° (SE) 2,362 4.3 -7.8°
Sets 23:18:09 0° 155° (SSE) 3,287 4.9 -7.7°
